Date String (YYYY-MM-DD hh:mm:ss) UTC,Instrument flags,absolute air pressure of the measurement (hPa),sample flow rate (lpm),inlet stack bypass flow (lpm),air temperature of the measurement (°C),ambient temperature measured by the external sensor (°C),aerosol sample conditioner tube jacket temperature (°C),OPC LED temperature (°C),internal box temperature (°C),relative humidity of the measurement (%),span deviation,mass concentration of particles derived from Lorenz-Mie calculation of OPC scattering (μg/m³),mass concentration of particles derived from Lorenz-Mie calculation of OPC scattering (μg/m³),mass concentration of particles derived from Lorenz-Mie calculation of OPC scattering (μg/m³)
DateTimeUTC,F1_M11,P_M11,Q1_M11,Q2_M11,T1_M11,T2_M11,T3_M11,T4_M11,T5_M11,U1_M11,ZSPAN_M11,X2_M11,X0_M11,X1_M11
2023-07-12 00:00:00,SystemResetWarning,0829.3,5.00,000.00,028.6,026.0,000.0,036.9,030.2,19.6,0000.0,0005.23,0019.03,0003.83
2023-07-12 00:01:00,SystemResetWarning,0829.4,5.00,000.00,028.7,026.5,000.0,036.9,030.3,18.2,0000.0,0005.23,0019.12,0003.82
2023-07-12 00:02:00,SystemResetWarning,0829.3,5.00,000.00,028.7,026.9,000.0,037.0,030.5,18.5,0000.0,0005.25,0018.17,0003.80
2023-07-12 00:03:00,SystemResetWarning,0829.3,4.99,000.00,028.8,027.3,000.0,037.0,030.6,20.7,0000.0,0005.20,0017.07,0003.80
2023-07-12 00:04:00,SystemResetWarning,0829.4,4.98,000.00,028.8,026.7,000.0,037.0,030.5,19.8,0000.0,0005.15,0016.23,0003.79
2023-07-12 00:05:00,SystemResetWarning,0829.3,5.00,000.00,028.8,025.1,000.0,036.9,030.2,21.1,0000.0,0005.15,0018.02,0003.80
2023-07-12 00:06:00,SystemResetWarning,0829.4,5.01,000.00,028.7,024.9,000.0,036.8,030.1,21.1,0000.0,0005.13,0019.04,0003.80
2023-07-12 00:07:00,SystemResetWarning,0829.4,5.01,000.00,028.6,025.3,000.0,036.9,030.0,20.9,0000.0,0005.11,0019.41,0003.81
2023-07-12 00:08:00,SystemResetWarning,0829.4,5.00,000.00,028.6,025.7,000.0,036.9,030.0,21.9,0000.0,0005.14,0019.18,0003.80
2023-07-12 00:09:00,SystemResetWarning,0829.4,5.00,000.00,028.6,026.2,000.0,036.9,030.2,21.1,0000.0,0005.14,0019.04,0003.79
2023-07-12 00:10:00,SystemResetWarning,0829.3,5.00,000.00,028.7,026.7,000.0,036.9,030.4,20.9,0000.0,0005.18,0019.85,0003.79
2023-07-12 00:11:00,SystemResetWarning,0829.4,5.00,000.00,028.7,027.1,000.0,037.0,030.5,21.4,0000.0,0005.19,0019.81,0003.79
2023-07-12 00:12:00,SystemResetWarning,0829.4,5.00,000.00,028.8,027.5,000.0,037.0,030.6,22.2,0000.0,0005.18,0019.47,0003.78
2023-07-12 00:13:00,SystemResetWarning,0829.4,4.99,000.00,028.8,026.9,000.0,037.0,030.5,22.1,0000.0,0005.18,0019.86,0003.79
2023-07-12 00:14:00,SystemResetWarning,0829.4,5.00,000.00,028.8,025.3,000.0,036.9,030.3,22.1,0000.0,0005.17,0019.98,0003.79
2023-07-12 00:15:00,SystemResetWarning,0829.4,5.01,000.00,028.7,025.0,000.0,036.8,030.1,22.4,0000.0,0005.20,0019.83,0003.80
2023-07-12 00:16:00,SystemResetWarning,0829.3,5.02,000.00,028.7,025.3,000.0,036.9,030.1,23.4,0000.0,0005.24,0019.61,0003.80
2023-07-12 00:17:00,SystemResetWarning,0829.3,5.00,000.00,028.6,025.7,000.0,036.9,030.1,24.0,0000.0,0005.22,0017.96,0003.80
2023-07-12 00:18:00,SystemResetWarning,0829.3,5.00,000.00,028.6,026.2,000.0,036.9,030.2,24.4,0000.0,0005.23,0016.74,0003.80
2023-07-12 00:19:00,SystemResetWarning,0829.4,5.00,000.00,028.7,026.7,000.0,037.0,030.4,23.1,0000.0,0005.18,0016.38,0003.81
2023-07-12 00:20:00,SystemResetWarning,0829.4,5.00,000.00,028.7,027.1,000.0,037.0,030.5,22.2,0000.0,0005.13,0017.23,0003.81
2023-07-12 00:21:00,SystemResetWarning,0829.4,5.00,000.00,028.8,027.5,000.0,037.0,030.6,21.8,0000.0,0005.13,0018.02,0003.82
2023-07-12 00:22:00,SystemResetWarning,0829.4,4.99,000.00,028.9,027.0,000.0,037.0,030.6,22.3,0000.0,0005.13,0017.76,0003.82
2023-07-12 00:23:00,SystemResetWarning,0829.3,4.99,000.00,028.8,025.4,000.0,036.9,030.3,22.3,0000.0,0005.15,0018.14,0003.83
2023-07-12 00:24:00,SystemResetWarning,0829.3,5.02,000.00,028.7,024.9,000.0,036.8,030.2,22.7,0000.0,0005.15,0017.87,0003.85
2023-07-12 00:25:00,SystemResetWarning,0829.3,5.01,000.00,028.7,025.3,000.0,036.9,030.1,23.1,0000.0,0005.13,0017.21,0003.86
2023-07-12 00:26:00,SystemResetWarning,0829.3,5.00,000.00,028.6,025.7,000.0,036.9,030.1,23.2,0000.0,0005.16,0018.12,0003.87
2023-07-12 00:27:00,SystemResetWarning,0829.3,5.00,000.00,028.7,026.2,000.0,036.9,030.2,23.2,0000.0,0005.16,0017.87,0003.88
2023-07-12 00:28:00,SystemResetWarning,0829.3,5.00,000.00,028.7,026.6,000.0,037.0,030.4,23.4,0000.0,0005.13,0017.39,0003.88
2023-07-12 00:29:00,SystemResetWarning,0829.3,4.99,000.00,028.8,027.1,000.0,037.0,030.5,21.9,0000.0,0005.11,0016.90,0003.88
2023-07-12 00:30:00,SystemResetWarning,0829.3,5.00,000.00,028.8,027.4,000.0,037.0,030.6,21.9,0000.0,0005.15,0017.26,0003.89
2023-07-12 00:31:00,SystemResetWarning,0829.3,4.99,000.00,028.9,027.1,000.0,037.0,030.6,21.8,0000.0,0005.19,0017.80,0003.89
2023-07-12 00:32:00,SystemResetWarning,0829.3,4.99,000.00,028.8,025.4,000.0,036.9,030.3,22.0,0000.0,0005.19,0018.15,0003.90
2023-07-12 00:33:00,SystemResetWarning,0829.3,5.02,000.00,028.7,024.9,000.0,036.9,030.2,21.6,0000.0,0005.18,0018.20,0003.92
2023-07-12 00:34:00,SystemResetWarning,0829.4,4.99,000.00,028.7,025.3,000.0,036.9,030.1,21.6,0000.0,0005.19,0017.91,0003.92
2023-07-12 00:35:00,SystemResetWarning,0829.3,5.00,000.00,028.7,025.7,000.0,036.9,030.1,22.3,0000.0,0005.22,0018.27,0003.92
2023-07-12 00:36:00,SystemResetWarning,0829.3,5.01,000.00,028.7,026.2,000.0,036.9,030.2,22.7,0000.0,0005.27,0020.64,0003.92
2023-07-12 00:37:00,SystemResetWarning,0829.3,5.00,000.00,028.7,026.6,000.0,037.0,030.4,22.2,0000.0,0005.22,0020.09,0003.93
2023-07-12 00:38:00,SystemResetWarning,0829.3,5.00,000.00,028.8,027.0,000.0,037.0,030.5,21.8,0000.0,0005.18,0019.62,0003.92
2023-07-12 00:39:00,SystemResetWarning,0829.3,5.00,000.00,028.8,027.3,000.0,037.0,030.6,21.6,0000.0,0005.23,0019.55,0003.92
2023-07-12 00:40:00,SystemResetWarning,0829.3,4.98,000.00,028.8,026.2,000.0,037.0,030.4,21.8,0000.0,0005.21,0020.75,0003.91
2023-07-12 00:41:00,SystemResetWarning,0829.3,5.01,000.00,028.8,024.9,000.0,036.9,030.2,22.0,0000.0,0005.23,0021.13,0003.92
2023-07-12 00:42:00,SystemResetWarning,0829.3,5.01,000.00,028.7,024.9,000.0,036.8,030.1,22.0,0000.0,0005.25,0020.00,0003.93
2023-07-12 00:43:00,SystemResetWarning,0829.3,4.99,000.00,028.6,025.4,000.0,036.9,030.1,21.5,0000.0,0005.25,0019.65,0003.94
2023-07-12 00:44:00,SystemResetWarning,0829.3,5.00,000.00,028.6,025.8,000.0,036.9,030.1,21.9,0000.0,0005.27,0019.47,0003.94
2023-07-12 00:45:00,SystemResetWarning,0829.3,5.01,000.00,028.7,026.3,000.0,036.9,030.3,21.6,0000.0,0005.24,0019.04,0003.95
2023-07-12 00:46:00,SystemResetWarning,0829.3,4.99,000.00,028.7,026.7,000.0,037.0,030.4,21.9,0000.0,0005.23,0018.63,0003.95
2023-07-12 00:47:00,SystemResetWarning,0829.3,5.00,000.00,028.8,027.1,000.0,037.0,030.5,22.1,0000.0,0005.19,0017.95,0003.95
2023-07-12 00:48:00,SystemResetWarning,0829.4,5.00,000.00,028.8,027.4,000.0,037.0,030.6,22.1,0000.0,0005.24,0019.38,0003.95
2023-07-12 00:49:00,SystemResetWarning,0829.4,4.99,000.00,028.8,026.4,000.0,037.0,030.5,22.1,0000.0,0005.28,0019.91,0003.96
2023-07-12 00:50:00,SystemResetWarning,0829.3,5.01,000.00,028.8,025.0,000.0,036.9,030.2,22.6,0000.0,0005.27,0020.05,0003.96
2023-07-12 00:51:00,SystemResetWarning,0829.3,5.01,000.00,028.7,024.9,000.0,036.8,030.2,22.9,0000.0,0005.34,0019.29,0003.98
2023-07-12 00:52:00,SystemResetWarning,0829.3,4.99,000.00,028.6,025.3,000.0,036.9,030.0,22.7,0000.0,0005.35,0019.50,0003.98
2023-07-12 00:53:00,SystemResetWarning,0829.3,5.00,000.00,028.6,025.8,000.0,036.9,030.1,23.2,0000.0,0005.33,0019.57,0003.97
2023-07-12 00:54:00,SystemResetWarning,0829.3,5.01,000.00,028.7,026.2,000.0,036.9,030.3,23.4,0000.0,0005.31,0019.62,0003.97
2023-07-12 00:55:00,SystemResetWarning,0829.3,5.00,000.00,028.7,026.7,000.0,037.0,030.4,23.6,0000.0,0005.30,0019.48,0003.96
2023-07-12 00:56:00,SystemResetWarning,0829.4,5.00,000.00,028.8,027.1,000.0,037.0,030.5,23.1,0000.0,0005.33,0019.93,0003.96
2023-07-12 00:57:00,SystemResetWarning,0829.4,5.00,000.00,028.8,027.4,000.0,037.0,030.6,23.4,0000.0,0005.33,0019.79,0003.96
2023-07-12 00:58:00,SystemResetWarning,0829.4,4.98,000.00,028.8,026.6,000.0,037.0,030.5,23.7,0000.0,0005.38,0018.81,0003.96
2023-07-12 00:59:00,SystemResetWarning,0829.3,5.01,000.00,028.8,025.0,000.0,036.9,030.2,23.7,0000.0,0005.35,0017.65,0003.96
